Location: Poughquag
(41.6090°N, 73.6820°W)
Time: 03:09:52
(UTC-04:00)

Explorer 7 - All Passes

Search period start: 15 October 2019 00:00
Search period end: 25 October 2019 00:00
Orbit: 485 x 680 km, 50.3° (Epoch: 14 October)

Date Brightness Start Highest point End Pass type
(mag) Time Alt. Az. Time Alt. Az. Time Alt. Az.
15 Oct - 13:43:39 10° SW 13:47:22 64° SE 13:51:09 10° ENE daylight
15 Oct - 15:24:39 10° W 15:28:04 31° NNW 15:31:37 10° NE daylight
15 Oct - 17:06:15 10° NW 17:09:25 23° N 17:12:44 10° ENE daylight
15 Oct - 18:46:45 10° NW 18:50:38 44° NNE 18:54:44 10° E visible
15 Oct - 20:27:14 10° WNW 20:31:10 41° SW 20:35:20 10° SSE visible
16 Oct - 12:10:02 10° S 12:12:18 16° SE 12:14:37 10° E daylight
16 Oct - 13:48:36 10° WSW 13:52:20 79° NNW 13:56:11 10° NE daylight
16 Oct - 15:30:02 10° WNW 15:33:17 26° NNW 15:36:37 10° NE daylight
16 Oct - 17:11:23 10° NW 17:14:40 25° N 17:18:05 10° ENE daylight
16 Oct - 18:51:43 10° NW 18:55:42 62° NNE 18:59:58 10° ESE visible
16 Oct - 20:32:34 10° W 20:36:02 25° SW 20:39:41 10° SSE visible
17 Oct - 12:13:56 10° SSW 12:17:06 26° SE 12:20:18 10° ENE daylight
17 Oct - 13:53:44 10° WSW 13:57:23 51° NNW 14:01:09 10° NE daylight
17 Oct - 15:35:24 10° WNW 15:38:31 23° N 15:41:43 10° NE daylight
17 Oct - 17:16:26 10° NW 17:19:52 29° NNE 17:23:29 10° ENE daylight
17 Oct - 18:56:42 10° WNW 19:00:44 88° SSW 19:05:02 10° SE visible
17 Oct - 20:38:18 10° W 20:40:51 16° SW 20:43:29 10° S visible
18 Oct - 12:18:24 10° SSW 12:21:58 44° SE 12:25:35 10° ENE daylight
18 Oct - 13:59:00 10° W 14:02:30 36° NNW 14:06:06 10° NE daylight
18 Oct - 15:40:43 10° NW 15:43:46 22° N 15:46:55 10° NE daylight
18 Oct - 17:21:24 10° NW 17:25:03 35° NNE 17:28:52 10° E daylight
18 Oct - 19:01:44 10° WNW 19:05:42 56° SW 19:09:53 10° SE visible
19 Oct - 10:46:09 10° SE 10:47:01 11° SE 10:47:52 10° ESE daylight
19 Oct - 12:23:10 10° SW 12:26:55 76° SE 12:30:40 10° ENE daylight
19 Oct - 14:04:22 10° WNW 14:07:40 29° NNW 14:11:04 10° NE daylight
19 Oct - 15:45:55 10° NW 15:49:01 23° N 15:52:13 10° ENE daylight
19 Oct - 17:26:21 10° NW 17:30:10 48° NNE 17:34:11 10° E daylight
19 Oct - 19:06:55 10° WNW 19:10:37 34° SW 19:14:29 10° SSE visible
20 Oct - 10:49:06 10° S 10:51:46 19° SE 10:54:27 10° E daylight
20 Oct - 12:28:10 10° WSW 12:31:55 68° NNW 12:35:40 10° NE daylight
20 Oct - 14:09:45 10° WNW 14:12:53 24° N 14:16:05 10° NE daylight
20 Oct - 15:51:01 10° NW 15:54:15 25° NNE 15:57:36 10° ENE daylight
20 Oct - 17:31:18 10° NW 17:35:13 70° NNE 17:39:22 10° ESE daylight
20 Oct - 19:12:22 10° W 19:15:27 21° SW 19:18:40 10° S visible
21 Oct - 10:53:14 10° SSW 10:56:36 31° SE 10:59:57 10° ENE daylight
21 Oct - 12:33:21 10° W 12:36:58 45° NNW 12:40:37 10° NE daylight
21 Oct - 14:15:06 10° WNW 14:18:08 22° N 14:21:12 10° NE daylight
21 Oct - 15:56:02 10° NW 15:59:26 30° NNE 16:03:00 10° E daylight
21 Oct - 17:36:18 10° WNW 17:40:13 76° SW 17:44:22 10° SE daylight
21 Oct - 19:18:29 10° WSW 19:20:15 12° SW 19:22:03 10° SSW visible
22 Oct - 10:57:47 10° SW 11:01:30 53° SE 11:05:09 10° ENE daylight
22 Oct - 12:38:40 10° W 12:42:06 33° NNW 12:45:34 10° NE daylight
22 Oct - 14:20:23 10° NW 14:23:22 22° N 14:26:25 10° NE daylight
22 Oct - 16:01:00 10° NW 16:04:36 38° NNE 16:08:21 10° E daylight
22 Oct - 17:41:23 10° WNW 17:45:10 46° SW 17:49:08 10° SE daylight
23 Oct - 09:24:35 10° SSE 09:26:27 13° SE 09:28:17 10° ESE daylight
23 Oct - 11:02:38 10° SW 11:06:27 88° SE 11:10:12 10° ENE daylight
23 Oct - 12:44:02 10° WNW 12:47:17 27° NNW 12:50:32 10° NE daylight
23 Oct - 14:25:33 10° NW 14:28:37 23° N 14:31:45 10° ENE daylight
23 Oct - 16:05:56 10° NW 16:09:42 53° NNE 16:13:38 10° ESE daylight
23 Oct - 17:46:39 10° WNW 17:50:03 28° SW 17:53:36 10° SSE daylight
24 Oct - 09:28:12 10° S 09:31:14 22° SE 09:34:13 10° E daylight
24 Oct - 11:07:43 10° WSW 11:11:28 59° NNW 11:15:11 10° NE daylight
24 Oct - 12:49:25 10° WNW 12:52:29 23° N 12:55:35 10° NE daylight
24 Oct - 14:30:37 10° NW 14:33:50 26° NNE 14:37:07 10° ENE daylight
24 Oct - 16:10:53 10° NW 16:14:44 80° NNE 16:18:45 10° ESE daylight
24 Oct - 17:52:15 10° W 17:54:52 17° SW 17:57:34 10° S daylight
